Temp
15 17 18 18 19 18 19 19 20 17 16 17 19 18 19 20 18 20 20 20 20 20 19 14 12 11 11 11 11 13 13 15 15 14 14 14 13 12 11 10 11 11 12 13
15 16 16 16 16 17 17 18 18 16 16 16 17 18 20 20 19 20 21 21 21 20 17 13 12 11 11 10 10 11 12 13 13 13 12 13 12 11 11 11 11 11 11 12
16 15 15 16 15 16 16 17 17 18 16 16 17 20 19 19 17 18 18 20 21 21 19 15 12 11 10 10 9 10 11 11 12 12 11 11 11 10 10 9 10 10 11 11
15 13 14 15 16 17 16 16 16 16 17 19 16 21 20 19 19 18 19 18 19 19 19 16 12 11 10 8 8 9 11 11 11 11 11 11 12 12 8 8 9 9 9 9
14 12 13 14 16 15 16 15 16 15 16 16 16 17 20 16 19 18 17 16 15 14 16 14 12 10 8 7 8 9 10 10 11 11 10 10 10 9 8 7 7 8 8 8
12 12 13 15 13 16 14 14 14 14 15 15 17 17 20 20 19 18 18 16 12 11 12 12 9 7 7 6 7 8 9 9 10 10 10 10 9 8 7 7 6 6 6 6
12 12 12 13 13 13 14 15 14 14 14 16 13 14 20 18 17 16 16 15 12 11 11 10 9 9 8 7 7 6 7 8 9 9 9 9 8 8 7 6 6 5 4 4
13 12 13 13 15 14 13 16 17 16 16 16 12 15 19 15 13 12 11 12 11 11 10 10 10 9 8 7 6 6 7 8 8 8 8 8 8 7 7 6 5 4 3 4
13 13 11 12 13 15 14 14 14 12 8 14 17 15 17 13 13 12 11 11 11 10 10 10 9 9 8 7 6 6 6 7 7 7 7 7 7 6 6 6 5 4 4 4
13 12 11 11 13 13 15 14 13 13 14 15 15 15 19 16 15 13 12 12 11 11 10 10 9 9 8 7 6 6 7 6 6 6 6 6 6 5 5 4 3 2 2 2
13 14 11 12 13 14 13 14 13 15 13 16 16 18 16 15 15 15 14 13 13 12 11 11 10 8 7 6 6 6 5 5 6 6 6 5 5 4 3 3 2 2 1 1
12 12 12 13 11 11 15 15 15 16 12 12 13 17 14 14 14 13 14 13 13 13 13 12 10 9 8 7 6 6 5 6 6 5 5 4 4 3 2 2 1 1 1 1
12 12 10 11 12 11 13 13 15 13 13 12 14 17 13 13 13 13 14 14 13 13 12 12 11 10 10 9 7 6 5 6 6 5 4 4 3 2 2 1 1 1 0 -0
13 12 13 15 15 14 13 14 14 15 13 15 15 17 16 14 14 13 13 14 14 13 13 14 13 12 11 10 8 7 6 6 5 4 3 3 2 2 1 1 0 -0 -1 -1
14 11 12 12 12 12 14 14 14 14 14 14 16 15 17 16 15 15 15 14 13 14 13 13 13 12 11 9 8 7 6 5 4 3 2 2 2 1 1 -0 -1 -2 -2 -3
12 10 11 9 10 11 12 13 14 14 15 15 15 15 17 17 16 15 14 14 13 14 13 13 12 11 10 10 8 7 6 6 6 4 2 2 1 0 -1 -2 -2 -3 -3 -3
12 9 10 11 9 11 11 11 12 13 14 15 14 16 16 14 14 15 15 14 14 14 13 13 12 10 10 9 9 7 8 7 5 3 2 2 1 -0 -1 -2 -3 -4 -4 -5
11 10 9 8 9 11 12 9 13 13 14 14 15 16 16 16 16 15 16 15 14 14 13 11 10 9 9 9 8 8 8 7 6 4 2 1 0 -1 -2 -3 -4 -5 -5 -5
13 11 7 9 10 12 13 10 10 11 13 14 14 14 15 15 14 14 14 14 14 14 13 12 11 10 9 9 9 8 7 6 5 3 2 1 0 -1 -2 -3 -5 -5 -6 -6
10 12 12 5 10 11 12 10 10 13 12 13 13 14 14 12 13 15 15 12 12 11 10 9 9 9 9 8 7 7 6 5 5 4 3 2 -0 -1 -2 -3 -5 -6 -6 -6
9 8 10 8 10 10 11 8 11 11 14 11 11 13 13 11 15 13 10 9 8 8 8 8 8 9 10 8 7 7 5 5 6 4 2 1 -0 -2 -2 -3 -5 -6 -7 -7
10 10 10 7 10 11 8 8 12 14 10 10 9 10 10 11 9 9 9 8 6 5 5 7 6 7 7 8 7 5 3 6 3 2 0 -1 -2 -3 -4 -4 -6 -7 -7 -8
10 12 10 12 12 9 9 11 11 8 11 10 10 8 8 7 8 9 9 7 5 5 4 5 6 6 6 6 5 3 5 4 2 0 -1 -2 -4 -4 -5 -5 -7 -8 -8 -8
7 4 9 9 8 8 8 7 6 8 9 8 8 8 7 8 7 7 6 6 5 4 4 6 5 4 5 6 4 5 3 1 -0 -1 -3 -4 -5 -6 -6 -7 -8 -8 -8 -8
7 6 6 7 5 4 6 6 8 7 6 6 6 7 7 7 7 7 6 3 3 5 6 6 5 5 7 4 5 3 1 -1 -2 -3 -4 -6 -7 -8 -8 -8 -8 -8 -8 -7
4 6 10 11 8 8 10 8 6 5 5 5 5 4 3 4 5 3 3 5 5 4 6 5 3 2 4 4 3 2 0 -1 -3 -6 -7 -8 -8 -8 -8 -8 -8 -8 -7 -8
Height
824 822 820 821 823 827 824 828 829 837 841 839 832 830 824 822 825 822 820 819 821 823 826 832 834 835 836 837 838 838 840 840 841 842 843 844 844 844 844 844 844 844 844 843
826 822 823 825 829 831 832 832 836 840 842 840 834 829 818 817 815 813 813 814 814 819 826 831 833 836 837 837 838 839 840 840 840 841 842 844 844 844 844 844 844 844 843 843
818 822 823 825 832 834 836 835 840 839 843 842 837 817 816 813 815 813 813 810 809 812 817 825 831 834 837 839 838 838 839 839 840 840 841 842 843 844 845 845 844 844 844 843
820 828 824 826 830 829 836 836 838 843 841 833 840 816 811 810 809 810 809 811 810 811 814 820 828 832 834 837 838 838 837 839 840 840 842 842 843 844 845 846 845 845 845 845
821 829 827 830 826 831 832 836 837 842 842 843 841 839 809 818 806 809 811 814 815 817 816 822 827 831 834 835 836 837 837 838 839 839 841 842 843 844 844 846 847 846 845 845
826 828 826 823 832 828 839 841 847 848 847 847 830 832 810 805 806 808 808 812 819 821 821 824 830 833 836 837 837 837 838 838 839 839 839 840 841 843 845 846 848 847 846 845
825 827 828 827 832 837 834 837 851 854 853 833 849 846 803 805 809 812 811 813 820 821 823 827 829 832 836 838 838 839 839 839 839 839 840 841 842 843 845 846 846 846 846 845
817 829 823 824 821 825 834 830 828 832 833 830 852 833 805 812 816 818 819 818 821 824 826 828 831 832 834 836 837 838 838 839 839 840 840 841 842 843 844 845 845 845 845 845
810 818 825 826 824 819 831 834 835 846 881 843 820 820 806 816 816 819 820 821 822 825 827 830 831 832 834 836 837 838 838 839 840 840 841 842 843 843 844 844 844 844 844 844
802 818 827 828 824 825 821 827 838 839 838 833 824 824 795 807 809 816 818 819 822 824 827 829 831 832 833 835 836 837 838 839 840 840 842 843 844 844 844 845 845 846 846 846
799 802 831 827 819 815 826 824 828 825 831 819 818 802 805 807 809 810 812 816 818 821 823 826 828 831 832 834 835 836 837 838 839 839 840 842 843 844 845 846 846 847 847 848
799 806 818 818 823 823 813 812 815 814 834 833 832 805 808 809 811 813 811 816 817 818 821 823 826 828 829 830 831 834 835 836 836 838 839 840 841 843 844 845 845 846 847 848
794 807 824 830 825 825 818 816 812 822 825 827 818 799 809 809 810 811 809 812 815 816 818 820 822 824 825 826 828 830 831 832 834 835 837 838 839 840 841 842 843 844 845 846
786 799 795 788 793 799 809 808 809 810 817 807 802 794 800 804 806 809 808 809 810 813 814 814 817 817 819 820 822 824 826 828 830 831 833 834 836 838 840 840 841 842 843 844
787 801 799 803 804 802 798 798 801 800 801 800 791 793 790 793 796 800 801 806 808 808 810 811 812 814 816 818 818 819 822 825 828 830 831 833 834 836 837 838 840 842 843 843
789 801 799 815 813 809 804 797 791 793 794 790 791 779 783 785 790 796 799 802 804 801 804 805 808 810 813 815 818 819 820 820 822 824 826 829 832 834 836 838 839 841 842 844
787 801 803 799 816 806 801 792 792 787 783 779 783 769 780 787 789 789 791 794 793 794 798 802 804 806 806 809 813 815 815 817 819 821 823 824 826 829 831 833 835 834 836 841
781 794 803 818 815 802 777 787 777 776 772 776 771 770 769 774 777 780 780 783 787 789 793 797 799 801 803 806 809 811 813 813 815 817 819 821 823 826 828 830 833 835 836 838
772 787 818 806 804 780 766 782 782 780 768 768 767 764 769 773 778 777 777 781 782 784 787 789 790 794 798 801 804 805 807 809 811 811 813 815 818 821 824 826 830 834 835 837
780 776 782 833 795 787 769 774 776 771 772 757 759 760 763 778 777 759 769 775 778 779 782 784 788 791 795 797 799 802 803 805 804 805 807 811 813 817 821 825 828 831 835 838
784 792 786 806 786 777 767 778 774 781 762 759 757 754 761 769 758 767 772 773 774 775 779 782 785 785 787 792 795 796 798 798 799 802 803 805 807 811 816 820 825 829 834 837
761 775 777 802 786 771 771 779 765 753 757 757 759 760 763 764 769 770 772 773 775 775 775 777 779 781 784 787 790 791 792 794 796 797 799 801 805 809 813 817 820 823 826 831
755 745 758 755 749 759 761 755 755 757 756 757 758 761 764 769 770 770 769 772 773 772 773 775 777 780 782 783 784 785 786 788 790 792 794 797 802 805 807 812 816 820 825 828
763 768 755 758 757 756 758 759 758 758 758 760 760 761 764 765 767 769 770 768 771 772 772 773 775 777 776 777 777 778 780 783 784 786 790 793 796 800 804 810 813 816 819 821
750 760 761 759 762 766 757 753 747 754 756 758 760 762 763 764 765 765 766 767 767 768 768 769 769 769 767 770 771 772 775 778 779 783 786 789 793 798 800 803 807 811 815 818
751 747 737 728 744 743 740 743 745 750 752 755 760 762 760 760 760 760 762 760 760 760 761 761 761 764 764 766 766 766 768 769 772 777 781 785 789 794 798 803 806 809 813 817
Wind_Speed
2 6 11 13 9 2 6 5 6 2 1 3 8 14 14 10 10 11 11 11 11 12 10 8 7 6 6 5 5 4 3 2 2 2 2 2 2 2 2 3 2 1 2 2
5 10 7 7 7 5 5 5 3 1 1 3 5 15 17 13 13 15 17 15 14 12 10 10 8 6 6 6 5 4 2 1 1 3 3 3 3 4 3 3 3 3 4 4
10 2 12 9 8 10 4 7 3 2 1 1 7 10 7 4 8 10 12 14 16 16 14 13 13 10 7 5 5 5 4 3 3 5 5 6 6 6 4 3 3 5 5 5
4 4 14 12 11 10 9 7 6 5 3 4 3 5 4 3 6 6 6 7 11 13 13 13 15 13 10 7 5 6 6 5 5 6 4 4 3 4 3 2 2 4 5 5
6 9 14 13 8 9 2 8 6 2 3 3 4 4 5 3 4 3 4 2 2 4 9 11 14 13 10 9 8 8 7 6 7 6 6 4 5 5 4 3 2 4 5 6
4 1 4 4 3 9 13 9 6 3 2 4 4 6 5 4 1 1 4 3 1 1 5 12 12 11 9 7 8 8 8 8 7 7 7 6 5 5 4 2 2 3 4 6
4 3 2 3 9 5 4 10 2 4 4 3 3 5 9 5 6 7 9 3 1 4 9 11 13 11 9 8 7 7 7 8 8 7 7 7 6 5 4 2 1 2 2 4
9 5 9 6 4 8 7 5 3 5 4 2 2 6 3 1 2 4 3 3 4 6 7 8 10 11 11 10 9 9 9 9 8 8 8 7 6 5 4 3 2 2 2 2
7 3 2 2 2 10 7 8 2 5 1 2 4 4 9 2 1 0 2 4 6 6 6 8 10 10 10 10 9 9 9 9 8 7 7 6 5 4 4 3 2 2 1 1
6 6 1 2 3 3 5 12 4 1 4 5 3 4 6 2 2 3 5 6 7 7 7 7 9 10 10 10 9 9 9 8 7 6 4 4 3 3 3 2 2 2 2 2
4 3 4 5 9 13 5 5 1 3 1 2 2 3 2 4 3 3 7 8 9 9 9 8 8 8 9 10 11 11 9 8 7 6 5 5 4 3 2 2 2 2 1 2
4 4 4 7 3 3 4 7 7 5 5 3 1 4 4 4 5 6 7 8 8 7 8 8 10 11 12 13 12 11 10 10 9 9 8 7 5 4 3 3 3 3 2 1
10 5 5 3 3 2 7 8 10 3 2 8 5 3 3 3 5 6 11 11 9 9 9 9 11 12 13 12 12 12 13 13 13 12 10 9 8 6 6 5 5 5 4 4
8 4 4 9 3 10 11 16 16 16 6 8 13 8 7 5 7 9 11 11 11 10 11 10 10 13 13 12 13 14 14 15 16 15 13 12 10 9 8 7 7 7 7 6
9 4 5 2 2 5 7 18 20 22 21 12 10 20 17 12 13 15 16 12 10 11 9 9 9 10 11 12 13 13 12 14 15 14 13 13 12 11 10 9 9 8 8 7
5 3 4 3 1 1 6 14 19 21 22 23 21 23 13 15 11 14 17 17 15 15 13 12 11 12 12 10 6 8 11 13 16 17 16 14 13 12 11 11 10 10 9 9
11 6 4 6 2 3 10 16 17 17 22 22 22 21 13 12 14 17 19 18 18 16 13 12 11 15 16 14 14 12 10 11 14 16 17 18 17 16 15 14 14 14 14 12
14 8 1 3 4 9 2 1 10 20 16 20 19 14 16 18 17 14 18 19 17 14 12 11 14 14 15 17 14 10 10 11 13 16 17 19 19 17 17 16 16 14 14 14
12 7 3 5 6 10 14 7 8 11 14 21 21 22 16 11 7 13 15 15 15 14 14 14 13 17 18 18 15 14 12 13 14 17 19 20 21 21 20 19 17 15 15 15
6 8 5 3 5 7 3 0 5 4 9 13 18 21 18 11 10 15 11 12 12 15 13 13 15 17 18 19 17 14 14 16 19 19 19 19 20 23 21 19 18 16 15 14
7 5 12 6 6 7 8 4 4 6 4 3 8 14 12 12 14 1 2 3 6 9 13 12 17 24 25 19 17 18 19 23 21 16 17 19 21 23 23 21 19 18 16 15
9 9 6 4 7 14 7 7 9 4 2 1 1 5 11 10 3 4 4 3 4 8 15 20 23 24 21 20 20 23 24 22 18 18 18 19 21 22 22 23 21 21 20 18
7 6 6 11 7 3 13 4 7 3 1 1 2 4 7 6 7 6 5 6 8 13 16 19 23 22 22 22 24 23 26 21 19 19 20 20 21 23 24 25 22 20 18 17
4 2 3 4 4 5 9 6 4 4 3 2 1 3 5 3 4 6 7 5 7 15 17 20 22 23 26 27 26 26 25 20 19 20 20 21 23 22 24 20 21 21 21 21
3 11 6 3 3 2 8 9 7 5 4 4 1 3 4 5 5 6 6 7 12 19 23 22 25 29 34 26 25 27 26 21 20 21 21 20 19 22 21 21 21 21 24 28
5 6 8 8 8 4 4 8 5 7 7 6 6 5 6 7 9 4 6 17 19 21 28 26 27 24 30 30 27 25 25 26 25 21 19 19 20 20 19 18 15 18 23 23
Wind_Direction
119 189 199 194 207 89 168 190 202 153 74 255 254 268 268 257 246 247 244 229 224 219 189 177 164 154 141 139 137 150 158 194 187 181 180 172 169 104 14 35 26 356 338 327
149 215 174 151 145 137 137 159 189 130 46 246 287 282 275 252 245 235 236 234 227 214 200 187 172 165 156 134 125 115 115 96 158 156 145 143 140 118 113 103 79 64 46 35
195 133 159 151 156 175 203 218 199 291 183 192 302 267 252 241 256 258 254 252 242 228 210 188 179 165 149 130 119 120 105 90 112 149 136 128 122 118 108 76 63 53 39 34
191 151 159 171 186 195 212 192 164 163 228 259 342 289 286 258 273 265 271 246 242 234 228 187 176 165 154 143 135 120 112 111 120 138 144 147 142 144 130 119 77 41 32 20
162 170 158 173 199 175 161 159 155 150 223 299 187 242 280 311 257 182 33 345 269 295 232 190 174 159 147 145 142 126 118 115 120 137 150 136 115 120 131 114 56 29 20 17
98 52 180 152 128 165 136 108 82 81 209 244 201 226 252 219 202 215 298 334 338 117 162 157 145 143 140 136 132 130 124 113 112 120 135 141 139 134 120 95 58 26 15 14
135 150 158 146 114 115 154 156 141 215 209 251 114 203 260 268 274 290 303 312 144 150 154 153 152 152 146 148 139 135 129 116 112 111 113 118 124 127 125 126 86 53 32 20
168 190 176 171 188 176 172 190 207 219 202 144 155 228 249 238 294 319 327 129 120 134 145 154 154 156 160 161 159 152 145 136 130 123 119 120 125 129 131 124 107 85 72 45
152 133 88 142 147 153 170 209 89 109 69 253 206 252 273 202 225 87 128 139 142 147 156 163 165 169 169 170 172 167 160 153 146 139 129 126 125 128 129 133 136 148 140 93
169 113 162 129 139 83 198 149 148 175 206 231 188 258 247 202 209 166 173 167 163 166 173 173 177 179 179 178 178 179 178 173 164 147 141 141 143 143 140 130 120 116 103 91
145 106 135 153 214 181 155 185 152 148 232 250 289 236 193 235 284 238 189 182 180 183 185 183 186 188 187 189 193 195 193 190 186 183 185 179 172 159 148 137 132 119 100 80
177 95 133 193 8 313 218 204 179 203 196 235 316 251 165 244 265 231 192 185 194 190 182 182 184 185 191 197 200 204 203 207 207 205 202 195 189 181 166 160 155 150 139 114
167 158 126 167 227 174 218 201 199 122 131 197 199 203 171 248 233 200 175 185 190 188 182 180 184 194 199 202 207 211 214 216 215 211 206 203 199 192 188 186 183 177 168 157
149 157 205 226 164 160 200 208 202 205 217 216 228 247 202 195 195 183 187 187 187 192 192 190 192 202 206 206 209 212 218 219 217 211 209 207 205 201 197 194 185 180 172 160
171 163 190 68 68 190 207 207 206 213 219 224 231 231 227 197 196 190 189 188 191 203 198 203 212 210 209 212 211 215 216 217 214 212 212 213 211 207 203 196 190 184 173 164
190 120 140 150 45 258 248 226 221 220 227 237 244 248 237 232 204 187 201 198 205 214 206 211 212 205 205 209 208 211 209 210 212 213 216 213 210 207 203 196 189 182 176 170
172 135 146 212 113 6 271 220 214 221 223 227 231 241 211 217 205 203 207 211 215 221 215 215 217 214 205 207 207 199 202 204 208 216 217 215 211 206 201 197 190 184 177 171
159 144 62 118 142 231 292 57 234 221 230 227 245 246 229 219 222 215 214 213 220 225 223 211 209 202 198 192 193 191 199 205 211 219 220 218 212 206 202 197 193 185 179 175
167 144 116 165 214 300 293 198 183 191 243 230 234 240 234 229 217 236 228 228 233 233 243 241 223 196 190 188 193 193 198 211 219 223 222 222 217 210 203 198 194 187 181 175
152 173 183 157 208 235 259 353 128 87 289 232 223 234 225 176 224 242 228 219 232 235 241 236 198 187 191 195 197 202 212 220 229 230 231 228 220 218 209 204 195 190 184 177
162 166 196 180 222 269 237 162 165 149 232 233 213 220 196 198 223 241 184 227 245 222 207 195 192 194 200 197 204 216 225 233 243 239 231 224 219 217 211 202 194 189 180 175
166 161 189 166 215 258 149 117 186 197 203 210 155 178 193 211 170 175 171 186 192 196 192 200 197 204 201 205 215 227 232 245 242 231 225 220 215 209 205 203 194 187 175 174
191 203 174 193 208 91 185 212 203 164 316 162 144 174 177 189 224 230 201 198 211 208 203 204 209 214 215 219 227 234 248 244 231 221 218 214 209 206 203 198 187 177 180 179
233 179 193 138 190 203 207 231 252 206 187 192 131 139 166 181 196 220 233 217 215 214 211 213 219 227 233 235 238 243 249 240 227 218 213 207 204 198 200 193 189 185 182 180
170 147 153 287 263 273 252 230 233 189 182 216 136 142 171 182 217 220 217 227 225 226 226 230 231 234 243 252 254 250 245 236 225 217 211 201 196 194 188 189 189 192 204 205
192 161 185 218 180 179 195 213 195 188 209 195 176 224 232 199 223 204 234 238 233 231 238 235 237 251 267 268 260 254 244 231 221 209 203 194 185 188 189 186 187 206 218 215